LOG22MP EGPD-EGBB

Flight info

Callsign LOG22MP
Flight time 1h 6m
Altitude 35000
Route NAXIL P600 PTH DCT ELBUS UL612 CROFT
Aircraft CRJ7/M-SDFGIRWY/S

Departure

Time 2026-04-30 18:11
Airport Aberdeen International Airport (EGPD)

Arrival

Time 2026-04-30 19:17
Airport Birmingham Airport (EGBB)
Time Latitude Longitude Altitude Speed Heading
2026-04-30 18:00 57.20638 -2.20681 228 ft 0 kts 104°
2026-04-30 18:09 57.20729 -2.20596 202 ft 13 kts 19°
2026-04-30 18:10 57.20873 -2.20279 205 ft 51 kts 158°
2026-04-30 18:11 57.17238 -2.18693 2136 ft 185 kts 209°
2026-04-30 18:11 57.14132 -2.25400 4119 ft 253 kts 227°
2026-04-30 18:12 57.10905 -2.33133 6075 ft 255 kts 228°
2026-04-30 18:13 57.08752 -2.38317 7333 ft 256 kts 228°
2026-04-30 18:13 57.05824 -2.45430 9027 ft 270 kts 228°
2026-04-30 18:14 57.03142 -2.51976 10516 ft 279 kts 228°
2026-04-30 18:15 56.99611 -2.60663 12371 ft 291 kts 228°
2026-04-30 18:15 56.95917 -2.69894 14277 ft 307 kts 229°
2026-04-30 18:16 56.92897 -2.75240 15489 ft 306 kts 214°
2026-04-30 18:16 56.89467 -2.79930 16743 ft 309 kts 214°
2026-04-30 18:17 56.87742 -2.82288 17366 ft 310 kts 214°
2026-04-30 18:17 56.86009 -2.84637 18015 ft 310 kts 214°
2026-04-30 18:17 56.82494 -2.89189 19241 ft 308 kts 213°
2026-04-30 18:18 56.80730 -2.91419 19831 ft 307 kts 213°
2026-04-30 18:18 56.78984 -2.93639 20459 ft 306 kts 212°
2026-04-30 18:18 56.77245 -2.95841 21069 ft 303 kts 212°
2026-04-30 18:18 56.75509 -2.98038 21701 ft 304 kts 212°
2026-04-30 18:19 56.73757 -3.00222 22343 ft 305 kts 212°
2026-04-30 18:19 56.72025 -3.02386 22998 ft 306 kts 212°
2026-04-30 18:19 56.70270 -3.04556 23654 ft 305 kts 211°
2026-04-30 18:19 56.68517 -3.06716 24254 ft 303 kts 211°
2026-04-30 18:20 56.66782 -3.08843 24832 ft 300 kts 211°
2026-04-30 18:20 56.65064 -3.10967 25425 ft 296 kts 211°
2026-04-30 18:20 56.63937 -3.12371 25753 ft 296 kts 211°
2026-04-30 18:20 56.62239 -3.14493 26247 ft 296 kts 211°
2026-04-30 18:21 56.60545 -3.16604 26739 ft 294 kts 211°
2026-04-30 18:21 56.58865 -3.18694 27246 ft 291 kts 211°
2026-04-30 18:21 56.57205 -3.20766 27766 ft 288 kts 211°
2026-04-30 18:21 56.55564 -3.22803 28283 ft 283 kts 211°
2026-04-30 18:22 56.53951 -3.24809 28813 ft 278 kts 211°
2026-04-30 18:22 56.50829 -3.28686 29880 ft 264 kts 210°
2026-04-30 18:22 56.49335 -3.30536 30412 ft 256 kts 210°
2026-04-30 18:23 56.47892 -3.32319 30867 ft 246 kts 210°
2026-04-30 18:23 56.46497 -3.34040 31187 ft 239 kts 210°
2026-04-30 18:23 56.45143 -3.35714 31479 ft 234 kts 210°
2026-04-30 18:23 56.43800 -3.37244 31674 ft 229 kts 205°
2026-04-30 18:24 56.40959 -3.39538 31958 ft 224 kts 198°
2026-04-30 18:24 56.39496 -3.40548 31955 ft 227 kts 198°
2026-04-30 18:24 56.38013 -3.41601 31957 ft 231 kts 200°
2026-04-30 18:25 56.36515 -3.42732 31953 ft 236 kts 200°
2026-04-30 18:25 56.33430 -3.45100 31982 ft 247 kts 200°
2026-04-30 18:25 56.31827 -3.46322 31981 ft 254 kts 200°
2026-04-30 18:26 56.28485 -3.48866 31975 ft 268 kts 200°
2026-04-30 18:26 56.26746 -3.50187 31974 ft 275 kts 200°
2026-04-30 18:26 56.24954 -3.51547 31942 ft 283 kts 200°
2026-04-30 18:27 56.21269 -3.54341 32296 ft 285 kts 200°
2026-04-30 18:27 56.19489 -3.55691 32720 ft 277 kts 200°
2026-04-30 18:28 56.16041 -3.58300 33572 ft 259 kts 200°
2026-04-30 18:28 56.14412 -3.59531 33975 ft 248 kts 200°
2026-04-30 18:28 56.11401 -3.61809 34681 ft 220 kts 200°
2026-04-30 18:29 56.10018 -3.62848 34803 ft 210 kts 200°
2026-04-30 18:29 56.05980 -3.65881 34367 ft 213 kts 200°
2026-04-30 18:30 56.03339 -3.67869 34337 ft 203 kts 199°
2026-04-30 18:30 56.00674 -3.69865 33919 ft 209 kts 199°
2026-04-30 18:31 55.99349 -3.70859 33921 ft 204 kts 199°
2026-04-30 18:31 55.96743 -3.72809 33613 ft 206 kts 199°
2026-04-30 18:32 55.94104 -3.74784 33471 ft 202 kts 199°
2026-04-30 18:32 55.92817 -3.75746 33378 ft 201 kts 199°
2026-04-30 18:32 55.90199 -3.77692 33066 ft 204 kts 199°
2026-04-30 18:33 55.88906 -3.78657 33062 ft 200 kts 199°
2026-04-30 18:33 55.86336 -3.80566 32823 ft 202 kts 199°
2026-04-30 18:33 55.85040 -3.81531 32736 ft 201 kts 199°
2026-04-30 18:34 55.83754 -3.82485 32715 ft 198 kts 199°
2026-04-30 18:34 55.81215 -3.84366 32494 ft 200 kts 199°
2026-04-30 18:34 55.79928 -3.85319 32446 ft 199 kts 199°
2026-04-30 18:35 55.78653 -3.86266 32350 ft 202 kts 199°
2026-04-30 18:35 55.77248 -3.87285 31741 ft 227 kts 199°
2026-04-30 18:35 55.75800 -3.88332 31893 ft 224 kts 199°
2026-04-30 18:36 55.72749 -3.90627 31502 ft 252 kts 200°
2026-04-30 18:36 55.71075 -3.91928 31236 ft 266 kts 200°
2026-04-30 18:36 55.67725 -3.94419 31546 ft 269 kts 199°
2026-04-30 18:37 55.65966 -3.95695 31516 ft 277 kts 200°
2026-04-30 18:37 55.64155 -3.97026 31509 ft 286 kts 200°
2026-04-30 18:37 55.62315 -3.98385 31509 ft 294 kts 200°
2026-04-30 18:38 55.58427 -4.01230 31509 ft 311 kts 200°
2026-04-30 18:38 55.54318 -4.04234 31500 ft 328 kts 200°
2026-04-30 18:38 55.52128 -4.05427 31509 ft 333 kts 184°
2026-04-30 18:39 55.49801 -4.05172 31517 ft 340 kts 171°
2026-04-30 18:39 55.45063 -4.03312 31509 ft 358 kts 163°
2026-04-30 18:40 55.40518 -3.99211 31506 ft 376 kts 151°
2026-04-30 18:40 55.35926 -3.94376 31497 ft 391 kts 153°
2026-04-30 18:41 55.31100 -3.89717 31484 ft 404 kts 153°
2026-04-30 18:41 55.26088 -3.84905 31464 ft 416 kts 153°
2026-04-30 18:42 55.20950 -3.79968 31691 ft 422 kts 154°
2026-04-30 18:42 55.15841 -3.75114 32250 ft 419 kts 154°
2026-04-30 18:42 55.13289 -3.72680 32542 ft 417 kts 153°
2026-04-30 18:45 54.88493 -3.49225 35084 ft 398 kts 153°
2026-04-30 18:45 54.86049 -3.46932 35135 ft 401 kts 153°
2026-04-30 18:46 54.81100 -3.42294 35165 ft 407 kts 153°
2026-04-30 18:46 54.76069 -3.37588 35171 ft 414 kts 153°
2026-04-30 18:47 54.70946 -3.32965 35183 ft 419 kts 156°
2026-04-30 18:47 54.65541 -3.28986 35182 ft 425 kts 159°
2026-04-30 18:48 54.60024 -3.24993 35182 ft 431 kts 158°
2026-04-30 18:48 54.54524 -3.20882 35173 ft 436 kts 158°
2026-04-30 18:49 54.48923 -3.16703 35161 ft 438 kts 158°
2026-04-30 18:49 54.43350 -3.12564 35178 ft 437 kts 158°
2026-04-30 18:50 54.37789 -3.08445 35181 ft 434 kts 158°
2026-04-30 18:50 54.32256 -3.04359 35173 ft 432 kts 158°
2026-04-30 18:51 54.26745 -3.00299 35177 ft 430 kts 158°
2026-04-30 18:51 54.21246 -2.96260 35185 ft 428 kts 158°
2026-04-30 18:52 54.15780 -2.92247 35171 ft 427 kts 158°
2026-04-30 18:52 54.10317 -2.88269 35168 ft 426 kts 158°
2026-04-30 18:53 54.04901 -2.84316 35166 ft 425 kts 158°
2026-04-30 18:53 53.99453 -2.80380 35052 ft 427 kts 158°
2026-04-30 18:53 53.96727 -2.78384 34604 ft 424 kts 158°
2026-04-30 18:54 53.94022 -2.76415 34118 ft 421 kts 158°
2026-04-30 18:54 53.91339 -2.74475 33569 ft 418 kts 158°
2026-04-30 18:54 53.88672 -2.72549 33039 ft 415 kts 158°
2026-04-30 18:54 53.86021 -2.70649 32521 ft 412 kts 158°
2026-04-30 18:55 53.83433 -2.68790 32013 ft 406 kts 158°
2026-04-30 18:55 53.78317 -2.65118 31005 ft 394 kts 158°
2026-04-30 18:55 53.75809 -2.63324 30518 ft 389 kts 158°
2026-04-30 18:56 53.70879 -2.59793 29409 ft 380 kts 158°
2026-04-30 18:56 53.68459 -2.58063 28845 ft 376 kts 158°
2026-04-30 18:56 53.66061 -2.56355 28302 ft 372 kts 158°
2026-04-30 18:57 53.61400 -2.52766 27178 ft 366 kts 152°
2026-04-30 18:57 53.59226 -2.50556 26548 ft 364 kts 149°
2026-04-30 18:57 53.57111 -2.48233 25940 ft 362 kts 148°
2026-04-30 18:58 53.52870 -2.43690 24744 ft 360 kts 150°
2026-04-30 18:58 53.50739 -2.41500 24164 ft 359 kts 150°
2026-04-30 18:58 53.48608 -2.39320 23560 ft 358 kts 150°
2026-04-30 18:59 53.44366 -2.34978 22224 ft 356 kts 150°
2026-04-30 19:00 53.38058 -2.28536 20336 ft 354 kts 150°
2026-04-30 19:00 53.35945 -2.26410 19727 ft 354 kts 150°
2026-04-30 19:00 53.31712 -2.22457 18534 ft 343 kts 152°
2026-04-30 19:01 53.27576 -2.18632 17214 ft 336 kts 152°
2026-04-30 19:01 53.25569 -2.16782 16584 ft 332 kts 152°
2026-04-30 19:02 53.21577 -2.13097 15350 ft 321 kts 152°
2026-04-30 19:02 53.17745 -2.09577 14154 ft 309 kts 152°
2026-04-30 19:03 53.14044 -2.06180 12864 ft 299 kts 152°
2026-04-30 19:03 53.10443 -2.02877 11594 ft 292 kts 152°
2026-04-30 19:04 53.06914 -1.99642 10402 ft 287 kts 152°
2026-04-30 19:04 53.03316 -1.97083 9151 ft 279 kts 171°
2026-04-30 19:05 52.99480 -1.96530 7903 ft 274 kts 176°
2026-04-30 19:05 52.95699 -1.96219 6693 ft 269 kts 175°
2026-04-30 19:06 52.92018 -1.95773 5428 ft 263 kts 174°
2026-04-30 19:06 52.90200 -1.95536 4793 ft 259 kts 175°
2026-04-30 19:06 52.87249 -1.95158 3761 ft 252 kts 173°
2026-04-30 19:07 52.83828 -1.94726 2808 ft 232 kts 172°
2026-04-30 19:07 52.82295 -1.94519 2661 ft 211 kts 170°
2026-04-30 19:08 52.79402 -1.94117 2536 ft 207 kts 171°
2026-04-30 19:08 52.76670 -1.93765 2496 ft 190 kts 171°
2026-04-30 19:08 52.75325 -1.93592 2522 ft 204 kts 171°
2026-04-30 19:09 52.72427 -1.93184 2546 ft 204 kts 172°
2026-04-30 19:09 52.71060 -1.92977 2511 ft 190 kts 172°
2026-04-30 19:09 52.69783 -1.92806 2500 ft 178 kts 172°
2026-04-30 19:10 52.67309 -1.92515 2498 ft 184 kts 171°
2026-04-30 19:10 52.64744 -1.92169 2496 ft 181 kts 171°
2026-04-30 19:11 52.63495 -1.92004 2507 ft 177 kts 171°
2026-04-30 19:11 52.61156 -1.91633 2479 ft 161 kts 160°
2026-04-30 19:11 52.60379 -1.90466 2484 ft 154 kts 121°
2026-04-30 19:12 52.59894 -1.88900 2506 ft 155 kts 119°
2026-04-30 19:12 52.59435 -1.87277 2506 ft 159 kts 118°
2026-04-30 19:12 52.59080 -1.85494 2512 ft 160 kts 110°
2026-04-30 19:13 52.57814 -1.83476 2504 ft 120 kts 143°
2026-04-30 19:13 52.56288 -1.82850 2476 ft 128 kts 189°
2026-04-30 19:13 52.55424 -1.83247 2498 ft 132 kts 188°
2026-04-30 19:14 52.54525 -1.83659 2344 ft 137 kts 185°
2026-04-30 19:14 52.53632 -1.83488 2172 ft 123 kts 156°
2026-04-30 19:14 52.52891 -1.83040 1848 ft 99 kts 149°
2026-04-30 19:14 52.52354 -1.82507 1630 ft 97 kts 143°
2026-04-30 19:15 52.51767 -1.81874 1574 ft 103 kts 144°
2026-04-30 19:15 52.50441 -1.80443 1360 ft 105 kts 144°
2026-04-30 19:15 52.49845 -1.79796 1083 ft 111 kts 142°
2026-04-30 19:16 52.49148 -1.79008 1026 ft 126 kts 142°
2026-04-30 19:16 52.48472 -1.78268 835 ft 108 kts 140°
2026-04-30 19:16 52.47163 -1.76780 515 ft 112 kts 144°
2026-04-30 19:17 52.46526 -1.76067 390 ft 106 kts 146°
2026-04-30 19:17 52.45786 -1.75244 323 ft 27 kts 146°
2026-04-30 19:17 52.45629 -1.75070 323 ft 28 kts 146°
2026-04-30 19:18 52.45405 -1.74793 324 ft 15 kts 97°
2026-04-30 19:18 52.45463 -1.74556 325 ft 20 kts 98°
2026-04-30 19:18 52.45404 -1.74341 325 ft 23 kts 116°
2026-04-30 19:19 52.45322 -1.74106 327 ft 24 kts 116°
2026-04-30 19:19 52.45345 -1.73894 328 ft 11 kts 57°
2026-04-30 19:19 52.45337 -1.73739 328 ft 0 kts 143°